QPF
0.00 0.01 0.00 0.00 0.00 0.00 0.00 0.00 0.00 0.00 0.00 0.00 0.01 0.00 0.00 0.00 0.00 0.01 0.01 0.02 0.03 0.04 0.03 0.03 0.03 0.03 0.05 0.08 0.08 0.08 0.05 0.03 0.02 0.03 0.06 0.06 0.05 0.04 0.04 0.03 0.03 0.02 0.01 0.01
0.01 0.01 0.00 0.00 0.00 0.00 0.00 0.00 0.00 0.00 0.00 0.00 0.01 0.00 0.00 0.00 0.00 0.00 0.01 0.02 0.02 0.03 0.03 0.02 0.02 0.02 0.02 0.04 0.07 0.08 0.07 0.06 0.04 0.03 0.03 0.05 0.06 0.05 0.04 0.04 0.03 0.03 0.01 0.01
0.01 0.01 0.00 0.01 0.00 0.00 0.00 0.00 0.01 0.01 0.00 0.00 0.01 0.01 0.01 0.01 0.00 0.00 0.00 0.01 0.01 0.02 0.02 0.02 0.01 0.01 0.01 0.02 0.03 0.04 0.05 0.05 0.05 0.04 0.05 0.05 0.05 0.06 0.05 0.03 0.03 0.04 0.03 0.03
0.01 0.01 0.00 0.00 0.00 0.00 0.00 0.00 0.01 0.00 0.01 0.01 0.01 0.01 0.01 0.01 0.01 0.00 0.00 0.00 0.01 0.01 0.02 0.02 0.01 0.01 0.01 0.02 0.01 0.02 0.03 0.05 0.05 0.05 0.05 0.04 0.04 0.05 0.06 0.06 0.04 0.04 0.04 0.04
0.01 0.00 0.00 0.00 0.00 0.00 0.00 0.00 0.01 0.01 0.01 0.01 0.01 0.01 0.01 0.01 0.01 0.01 0.00 0.00 0.00 0.00 0.01 0.02 0.02 0.02 0.01 0.01 0.01 0.01 0.01 0.02 0.03 0.06 0.07 0.06 0.04 0.04 0.05 0.07 0.08 0.07 0.06 0.05
0.00 0.00 0.00 0.00 0.00 0.00 0.01 0.01 0.01 0.01 0.02 0.02 0.01 0.01 0.01 0.01 0.01 0.02 0.01 0.01 0.01 0.01 0.01 0.01 0.02 0.03 0.02 0.01 0.01 0.01 0.00 0.01 0.01 0.03 0.06 0.07 0.07 0.06 0.05 0.04 0.05 0.07 0.07 0.05
0.00 0.00 0.00 0.00 0.00 0.01 0.01 0.02 0.03 0.03 0.03 0.01 0.00 0.00 0.00 0.00 0.00 0.01 0.01 0.01 0.01 0.01 0.01 0.01 0.01 0.02 0.02 0.02 0.01 0.00 0.00 0.00 0.01 0.01 0.02 0.03 0.05 0.06 0.07 0.06 0.05 0.05 0.06 0.05
0.01 0.01 0.00 0.00 0.01 0.01 0.02 0.02 0.03 0.02 0.01 0.01 0.00 0.01 0.00 0.00 0.00 0.00 0.01 0.01 0.01 0.00 0.01 0.01 0.01 0.01 0.01 0.02 0.01 0.01 0.00 0.00 0.00 0.01 0.01 0.02 0.03 0.03 0.04 0.04 0.04 0.03 0.03 0.05
0.02 0.01 0.01 0.01 0.01 0.01 0.01 0.02 0.02 0.02 0.01 0.01 0.01 0.01 0.00 0.00 0.00 0.00 0.00 0.00 0.00 0.00 0.00 0.00 0.01 0.01 0.01 0.01 0.00 0.00 0.00 0.00 0.00 0.01 0.01 0.02 0.02 0.02 0.02 0.02 0.02 0.02 0.02 0.02
0.01 0.01 0.01 0.01 0.01 0.01 0.01 0.01 0.02 0.04 0.03 0.02 0.01 0.01 0.01 0.00 0.00 0.00 0.00 0.00 0.00 0.00 0.00 0.00 0.00 0.01 0.01 0.01 0.01 0.00 0.00 0.00 0.00 0.01 0.01 0.01 0.02 0.02 0.02 0.02 0.02 0.02 0.01 0.01
0.01 0.01 0.01 0.01 0.01 0.01 0.02 0.02 0.02 0.03 0.03 0.03 0.02 0.02 0.01 0.01 0.01 0.00 0.00 0.00 0.00 0.00 0.00 0.00 0.00 0.01 0.01 0.01 0.01 0.01 0.00 0.00 0.00 0.01 0.01 0.01 0.01 0.02 0.02 0.02 0.02 0.01 0.01 0.01
0.01 0.01 0.01 0.01 0.00 0.00 0.01 0.02 0.02 0.04 0.03 0.02 0.02 0.02 0.01 0.01 0.01 0.01 0.01 0.01 0.01 0.01 0.01 0.01 0.01 0.01 0.01 0.00 0.01 0.01 0.00 0.00 0.00 0.00 0.01 0.01 0.01 0.01 0.01 0.02 0.02 0.01 0.01 0.01
0.02 0.03 0.02 0.02 0.01 0.00 0.01 0.01 0.01 0.02 0.03 0.02 0.02 0.02 0.01 0.01 0.01 0.01 0.01 0.01 0.01 0.01 0.01 0.01 0.01 0.01 0.01 0.01 0.01 0.01 0.00 0.00 0.00 0.01 0.01 0.01 0.01 0.01 0.01 0.01 0.01 0.01 0.01 0.01
0.02 0.03 0.02 0.02 0.01 0.01 0.01 0.01 0.01 0.02 0.03 0.02 0.01 0.01 0.01 0.01 0.01 0.01 0.01 0.01 0.01 0.01 0.02 0.02 0.02 0.02 0.02 0.01 0.01 0.01 0.01 0.01 0.01 0.01 0.01 0.01 0.02 0.01 0.01 0.01 0.01 0.01 0.01 0.01
0.02 0.03 0.02 0.01 0.00 0.00 0.01 0.01 0.01 0.01 0.01 0.01 0.01 0.01 0.01 0.01 0.01 0.01 0.01 0.01 0.02 0.02 0.02 0.02 0.02 0.03 0.03 0.02 0.01 0.01 0.01 0.01 0.01 0.01 0.01 0.01 0.02 0.02 0.01 0.01 0.01 0.01 0.01 0.01
0.02 0.03 0.02 0.01 0.01 0.00 0.00 0.00 0.00 0.00 0.00 0.01 0.01 0.01 0.01 0.01 0.01 0.01 0.01 0.01 0.01 0.02 0.02 0.02 0.02 0.02 0.03 0.03 0.02 0.02 0.02 0.02 0.02 0.02 0.01 0.01 0.01 0.02 0.02 0.01 0.01 0.01 0.01 0.01
0.02 0.02 0.03 0.02 0.01 0.01 0.01 0.00 0.00 0.00 0.00 0.01 0.01 0.01 0.00 0.00 0.00 0.01 0.01 0.01 0.01 0.02 0.02 0.02 0.02 0.02 0.02 0.02 0.02 0.02 0.02 0.02 0.02 0.02 0.02 0.01 0.01 0.01 0.01 0.01 0.01 0.01 0.01 0.01
0.01 0.02 0.03 0.02 0.01 0.02 0.01 0.00 0.00 0.00 0.00 0.00 0.00 0.00 0.00 0.00 0.00 0.01 0.01 0.01 0.01 0.01 0.01 0.01 0.02 0.02 0.02 0.01 0.02 0.02 0.02 0.02 0.02 0.02 0.02 0.02 0.02 0.01 0.01 0.01 0.01 0.01 0.01 0.01
0.01 0.02 0.03 0.03 0.03 0.02 0.01 0.00 0.00 0.00 0.00 0.00 0.00 0.00 0.00 0.00 0.00 0.00 0.00 0.00 0.01 0.01 0.01 0.01 0.01 0.01 0.01 0.01 0.01 0.01 0.01 0.01 0.01 0.02 0.02 0.02 0.01 0.01 0.01 0.01 0.01 0.01 0.01 0.01
0.01 0.02 0.04 0.04 0.04 0.02 0.01 0.00 0.00 0.00 0.01 0.00 0.00 0.00 0.00 0.00 0.01 0.00 0.00 0.00 0.00 0.00 0.00 0.00 0.01 0.01 0.01 0.01 0.01 0.01 0.01 0.01 0.01 0.01 0.01 0.01 0.01 0.01 0.01 0.01 0.01 0.01 0.01 0.01
0.02 0.03 0.04 0.03 0.04 0.02 0.01 0.00 0.00 0.01 0.01 0.00 0.00 0.00 0.00 0.00 0.00 0.00 0.00 0.00 0.00 0.00 0.00 0.00 0.00 0.01 0.01 0.01 0.00 0.00 0.00 0.01 0.01 0.01 0.01 0.00 0.01 0.01 0.01 0.01 0.01 0.01 0.01 0.01
0.01 0.02 0.02 0.02 0.03 0.02 0.01 0.01 0.01 0.01 0.01 0.00 0.00 0.00 0.00 0.00 0.00 0.00 0.00 0.00 0.00 0.00 0.00 0.00 0.01 0.01 0.01 0.01 0.00 0.00 0.00 0.01 0.01 0.01 0.00 0.00 0.00 0.00 0.00 0.01 0.00 0.00 0.01 0.01
0.01 0.02 0.02 0.01 0.02 0.01 0.01 0.01 0.01 0.01 0.00 0.00 0.00 0.00 0.00 0.00 0.00 0.00 0.00 0.00 0.00 0.00 0.00 0.00 0.01 0.01 0.01 0.00 0.00 0.00 0.01 0.01 0.01 0.01 0.01 0.00 0.00 0.00 0.00 0.01 0.00 0.00 0.00 0.00
0.01 0.00 0.01 0.01 0.01 0.00 0.00 0.00 0.00 0.00 0.00 0.00 0.00 0.00 0.00 0.00 0.00 0.00 0.00 0.00 0.00 0.00 0.00 0.00 0.01 0.01 0.00 0.00 0.01 0.01 0.01 0.01 0.00 0.01 0.01 0.00 0.00 0.00 0.00 0.00 0.00 0.00 0.01 0.00
0.01 0.00 0.01 0.01 0.01 0.01 0.01 0.01 0.00 0.00 0.00 0.00 0.00 0.00 0.00 0.00 0.00 0.00 0.00 0.00 0.00 0.00 0.00 0.00 0.00 0.00 0.00 0.00 0.01 0.01 0.01 0.01 0.00 0.01 0.01 0.01 0.01 0.01 0.00 0.00 0.00 0.00 0.00 0.01
0.01 0.01 0.01 0.01 0.01 0.01 0.01 0.01 0.00 0.01 0.01 0.00 0.01 0.00 0.00 0.00 0.00 0.00 0.00 0.00 0.00 0.00 0.00 0.00 0.00 0.00 0.00 0.00 0.00 0.01 0.01 0.01 0.01 0.01 0.01 0.01 0.01 0.01 0.01 0.01 0.01 0.01 0.01 0.01
MSLP
1016.28 1016.32 1016.36 1016.42 1016.47 1016.52 1016.52 1016.46 1016.31 1016.04 1015.66 1015.16 1014.59 1013.95 1013.31 1012.70 1012.12 1011.59 1011.10 1010.61 1010.11 1009.57 1008.99 1008.39 1007.79 1007.27 1006.86 1006.64 1006.62 1006.82 1007.22 1007.77 1008.41 1009.06 1009.66 1010.17 1010.57 1010.84 1011.02 1011.13 1011.23 1011.32 1011.45 1011.63
1016.70 1016.75 1016.82 1016.89 1016.97 1017.02 1017.02 1016.93 1016.73 1016.39 1015.92 1015.33 1014.66 1013.96 1013.27 1012.63 1012.08 1011.61 1011.19 1010.79 1010.37 1009.90 1009.34 1008.72 1008.07 1007.44 1006.91 1006.54 1006.37 1006.43 1006.73 1007.20 1007.79 1008.43 1009.04 1009.58 1010.01 1010.33 1010.55 1010.70 1010.83 1010.96 1011.12 1011.33
1017.00 1017.06 1017.14 1017.24 1017.34 1017.42 1017.44 1017.35 1017.12 1016.73 1016.18 1015.50 1014.73 1013.95 1013.20 1012.54 1012.01 1011.59 1011.26 1010.98 1010.68 1010.30 1009.82 1009.23 1008.56 1007.87 1007.22 1006.70 1006.37 1006.27 1006.40 1006.74 1007.22 1007.78 1008.35 1008.87 1009.31 1009.64 1009.89 1010.09 1010.27 1010.45 1010.66 1010.91
1017.19 1017.23 1017.31 1017.44 1017.58 1017.71 1017.76 1017.70 1017.47 1017.05 1016.44 1015.68 1014.83 1013.95 1013.13 1012.44 1011.91 1011.54 1011.31 1011.14 1010.98 1010.74 1010.38 1009.87 1009.22 1008.50 1007.78 1007.13 1006.64 1006.35 1006.30 1006.45 1006.78 1007.20 1007.67 1008.12 1008.52 1008.85 1009.11 1009.34 1009.56 1009.80 1010.07 1010.38
1017.26 1017.28 1017.37 1017.52 1017.71 1017.89 1018.01 1017.99 1017.79 1017.37 1016.72 1015.90 1014.96 1014.00 1013.10 1012.36 1011.82 1011.48 1011.32 1011.27 1011.25 1011.16 1010.94 1010.54 1009.97 1009.27 1008.51 1007.78 1007.15 1006.69 1006.44 1006.40 1006.54 1006.79 1007.12 1007.47 1007.79 1008.08 1008.33 1008.57 1008.81 1009.09 1009.41 1009.77
1017.26 1017.25 1017.34 1017.51 1017.76 1018.01 1018.21 1018.26 1018.10 1017.69 1017.04 1016.17 1015.16 1014.12 1013.14 1012.34 1011.76 1011.43 1011.32 1011.36 1011.46 1011.51 1011.44 1011.18 1010.72 1010.09 1009.35 1008.57 1007.85 1007.25 1006.84 1006.61 1006.55 1006.63 1006.81 1007.02 1007.25 1007.47 1007.69 1007.91 1008.17 1008.47 1008.82 1009.21
1017.22 1017.19 1017.28 1017.49 1017.79 1018.12 1018.39 1018.52 1018.41 1018.04 1017.39 1016.49 1015.43 1014.32 1013.27 1012.39 1011.77 1011.41 1011.31 1011.41 1011.60 1011.78 1011.84 1011.72 1011.39 1010.86 1010.18 1009.41 1008.65 1007.97 1007.43 1007.06 1006.84 1006.77 1006.79 1006.89 1007.01 1007.16 1007.33 1007.53 1007.77 1008.06 1008.42 1008.83
1017.18 1017.14 1017.24 1017.49 1017.84 1018.24 1018.58 1018.78 1018.73 1018.40 1017.76 1016.85 1015.76 1014.60 1013.48 1012.54 1011.85 1011.45 1011.34 1011.44 1011.68 1011.95 1012.12 1012.13 1011.92 1011.51 1010.91 1010.21 1009.46 1008.76 1008.16 1007.69 1007.37 1007.18 1007.10 1007.09 1007.14 1007.23 1007.35 1007.51 1007.72 1008.00 1008.35 1008.74
1017.17 1017.14 1017.27 1017.56 1017.96 1018.40 1018.80 1019.04 1019.04 1018.74 1018.12 1017.22 1016.11 1014.91 1013.75 1012.75 1012.00 1011.55 1011.39 1011.48 1011.73 1012.03 1012.27 1012.38 1012.29 1011.99 1011.50 1010.88 1010.20 1009.53 1008.93 1008.43 1008.06 1007.82 1007.68 1007.62 1007.62 1007.67 1007.76 1007.89 1008.08 1008.33 1008.64 1009.00
1017.20 1017.22 1017.39 1017.71 1018.14 1018.61 1019.03 1019.29 1019.30 1019.01 1018.40 1017.51 1016.41 1015.20 1014.02 1012.99 1012.20 1011.70 1011.49 1011.53 1011.75 1012.06 1012.33 1012.49 1012.49 1012.29 1011.91 1011.40 1010.82 1010.21 1009.66 1009.19 1008.83 1008.59 1008.44 1008.37 1008.37 1008.41 1008.49 1008.62 1008.79 1009.00 1009.27 1009.58
1017.30 1017.37 1017.59 1017.94 1018.38 1018.85 1019.24 1019.48 1019.46 1019.15 1018.54 1017.65 1016.57 1015.39 1014.23 1013.20 1012.40 1011.87 1011.62 1011.61 1011.79 1012.06 1012.33 1012.52 1012.57 1012.45 1012.17 1011.77 1011.28 1010.78 1010.30 1009.90 1009.59 1009.38 1009.27 1009.23 1009.26 1009.33 1009.43 1009.56 1009.72 1009.91 1010.14 1010.39
1017.47 1017.60 1017.86 1018.23 1018.65 1019.07 1019.40 1019.55 1019.47 1019.11 1018.47 1017.59 1016.54 1015.41 1014.30 1013.32 1012.54 1012.02 1011.75 1011.72 1011.85 1012.08 1012.33 1012.52 1012.60 1012.53 1012.33 1012.02 1011.63 1011.22 1010.83 1010.50 1010.26 1010.11 1010.05 1010.06 1010.13 1010.25 1010.38 1010.54 1010.70 1010.88 1011.07 1011.27
1017.70 1017.90 1018.19 1018.55 1018.92 1019.24 1019.45 1019.48 1019.28 1018.84 1018.16 1017.28 1016.27 1015.21 1014.19 1013.30 1012.60 1012.12 1011.88 1011.83 1011.95 1012.15 1012.37 1012.54 1012.63 1012.60 1012.45 1012.20 1011.89 1011.56 1011.25 1010.99 1010.80 1010.70 1010.69 1010.75 1010.87 1011.03 1011.20 1011.39 1011.57 1011.75 1011.92 1012.08
1017.99 1018.24 1018.54 1018.85 1019.13 1019.31 1019.36 1019.23 1018.88 1018.33 1017.59 1016.71 1015.75 1014.78 1013.88 1013.12 1012.54 1012.15 1011.97 1011.95 1012.07 1012.26 1012.46 1012.62 1012.70 1012.69 1012.57 1012.37 1012.12 1011.84 1011.57 1011.35 1011.20 1011.13 1011.15 1011.23 1011.38 1011.57 1011.78 1012.00 1012.20 1012.39 1012.55 1012.69
1018.31 1018.58 1018.86 1019.09 1019.24 1019.26 1019.11 1018.79 1018.27 1017.60 1016.79 1015.91 1015.02 1014.16 1013.41 1012.80 1012.36 1012.10 1012.01 1012.06 1012.20 1012.39 1012.59 1012.74 1012.82 1012.82 1012.72 1012.55 1012.32 1012.07 1011.83 1011.62 1011.47 1011.40 1011.41 1011.49 1011.64 1011.84 1012.07 1012.31 1012.54 1012.74 1012.91 1013.03
1018.61 1018.87 1019.09 1019.21 1019.20 1019.03 1018.69 1018.16 1017.48 1016.69 1015.83 1014.96 1014.14 1013.41 1012.81 1012.37 1012.10 1011.99 1012.00 1012.13 1012.31 1012.52 1012.72 1012.87 1012.95 1012.95 1012.87 1012.72 1012.51 1012.26 1012.02 1011.80 1011.63 1011.52 1011.50 1011.55 1011.68 1011.87 1012.10 1012.35 1012.59 1012.81 1012.99 1013.13
1018.82 1019.04 1019.16 1019.15 1018.98 1018.61 1018.07 1017.36 1016.54 1015.65 1014.76 1013.93 1013.19 1012.60 1012.16 1011.90 1011.79 1011.81 1011.94 1012.14 1012.38 1012.61 1012.81 1012.96 1013.04 1013.05 1012.97 1012.83 1012.63 1012.38 1012.13 1011.89 1011.68 1011.53 1011.46 1011.46 1011.55 1011.71 1011.93 1012.17 1012.42 1012.66 1012.86 1013.02
1018.85 1018.99 1019.00 1018.85 1018.50 1017.97 1017.26 1016.41 1015.49 1014.55 1013.67 1012.89 1012.26 1011.81 1011.53 1011.43 1011.46 1011.61 1011.83 1012.09 1012.36 1012.60 1012.80 1012.95 1013.02 1013.03 1012.96 1012.83 1012.64 1012.40 1012.14 1011.88 1011.64 1011.45 1011.33 1011.28 1011.33 1011.45 1011.64 1011.88 1012.13 1012.38 1012.60 1012.77
1018.61 1018.65 1018.54 1018.25 1017.76 1017.08 1016.25 1015.32 1014.35 1013.43 1012.59 1011.91 1011.41 1011.10 1010.97 1011.01 1011.17 1011.40 1011.68 1011.97 1012.24 1012.48 1012.66 1012.78 1012.85 1012.85 1012.79 1012.67 1012.50 1012.28 1012.02 1011.76 1011.51 1011.30 1011.15 1011.07 1011.07 1011.16 1011.33 1011.55 1011.79 1012.05 1012.28 1012.47
1018.05 1017.98 1017.75 1017.33 1016.73 1015.96 1015.07 1014.12 1013.18 1012.32 1011.59 1011.03 1010.67 1010.51 1010.51 1010.67 1010.91 1011.20 1011.51 1011.79 1012.04 1012.23 1012.38 1012.47 1012.50 1012.50 1012.44 1012.34 1012.19 1012.00 1011.78 1011.54 1011.30 1011.09 1010.93 1010.84 1010.82 1010.89 1011.04 1011.24 1011.47 1011.72 1011.95 1012.15
1017.13 1016.96 1016.62 1016.11 1015.44 1014.63 1013.75 1012.85 1011.99 1011.24 1010.66 1010.26 1010.05 1010.03 1010.16 1010.40 1010.70 1011.01 1011.31 1011.56 1011.76 1011.89 1011.98 1012.02 1012.03 1012.00 1011.95 1011.86 1011.75 1011.59 1011.42 1011.22 1011.02 1010.84 1010.70 1010.61 1010.59 1010.65 1010.78 1010.96 1011.18 1011.41 1011.63 1011.81
1015.89 1015.62 1015.20 1014.63 1013.93 1013.15 1012.33 1011.53 1010.81 1010.23 1009.82 1009.59 1009.55 1009.66 1009.89 1010.20 1010.53 1010.84 1011.11 1011.31 1011.44 1011.51 1011.53 1011.51 1011.47 1011.43 1011.37 1011.30 1011.21 1011.10 1010.97 1010.83 1010.68 1010.54 1010.43 1010.37 1010.36 1010.42 1010.54 1010.70 1010.89 1011.09 1011.28 1011.44
1014.38 1014.03 1013.55 1012.96 1012.29 1011.58 1010.87 1010.22 1009.69 1009.30 1009.08 1009.03 1009.14 1009.38 1009.69 1010.05 1010.39 1010.69 1010.91 1011.06 1011.12 1011.12 1011.08 1011.01 1010.93 1010.85 1010.79 1010.72 1010.65 1010.57 1010.49 1010.39 1010.29 1010.20 1010.13 1010.09 1010.10 1010.16 1010.26 1010.40 1010.56 1010.72 1010.88 1011.00
1012.69 1012.28 1011.78 1011.21 1010.60 1010.00 1009.45 1008.99 1008.65 1008.47 1008.44 1008.57 1008.82 1009.16 1009.55 1009.94 1010.28 1010.56 1010.74 1010.84 1010.85 1010.80 1010.70 1010.58 1010.47 1010.36 1010.27 1010.19 1010.13 1010.06 1010.00 1009.93 1009.86 1009.80 1009.76 1009.74 1009.76 1009.82 1009.90 1010.02 1010.14 1010.27 1010.38 1010.47
1010.93 1010.48 1009.99 1009.47 1008.97 1008.52 1008.15 1007.89 1007.77 1007.79 1007.95 1008.22 1008.59 1009.02 1009.45 1009.86 1010.20 1010.46 1010.61 1010.67 1010.65 1010.56 1010.42 1010.27 1010.12 1009.98 1009.86 1009.76 1009.67 1009.59 1009.52 1009.45 1009.39 1009.34 1009.31 1009.29 1009.31 1009.36 1009.43 1009.51 1009.61 1009.70 1009.78 1009.84
1009.18 1008.72 1008.27 1007.85 1007.48 1007.21 1007.04 1007.00 1007.08 1007.29 1007.61 1008.01 1008.47 1008.95 1009.41 1009.82 1010.15 1010.39 1010.52 1010.56 1010.52 1010.41 1010.26 1010.08 1009.90 1009.73 1009.56 1009.42 1009.28 1009.16 1009.05 1008.95 1008.86 1008.79 1008.75 1008.72 1008.73 1008.76 1008.81 1008.88 1008.95 1009.02 1009.08 1009.14
Thickness
5587 5580 5576 5580 5584 5586 5586 5586 5589 5594 5597 5593 5591 5596 5604 5608 5608 5609 5610 5612 5614 5614 5615 5615 5615 5614 5613 5613 5613 5613 5614 5613 5613 5612 5610 5609 5608 5608 5607 5607 5607 5606 5605 5605
5574 5570 5577 5580 5581 5578 5575 5573 5576 5581 5586 5582 5581 5587 5599 5602 5601 5602 5604 5604 5605 5605 5605 5605 5604 5604 5604 5603 5603 5604 5604 5603 5604 5603 5602 5601 5600 5598 5598 5597 5597 5597 5596 5596
5565 5568 5572 5570 5568 5567 5567 5564 5566 5568 5572 5574 5570 5576 5590 5597 5599 5599 5599 5600 5599 5599 5597 5596 5595 5594 5594 5594 5594 5595 5595 5595 5595 5594 5593 5592 5589 5588 5588 5587 5587 5587 5587 5587
5559 5562 5561 5559 5558 5558 5556 5562 5561 5560 5552 5552 5562 5552 5582 5589 5590 5591 5591 5591 5591 5592 5591 5589 5587 5586 5585 5585 5585 5586 5586 5587 5586 5586 5584 5582 5580 5579 5579 5578 5577 5577 5577 5578
5550 5552 5550 5549 5551 5550 5550 5554 5552 5550 5545 5541 5552 5545 5565 5581 5580 5583 5584 5584 5584 5584 5582 5581 5580 5578 5577 5576 5576 5576 5576 5577 5577 5576 5575 5573 5571 5570 5569 5568 5567 5567 5568 5568
5542 5545 5542 5542 5543 5545 5544 5542 5542 5540 5534 5526 5546 5542 5552 5568 5574 5577 5577 5577 5576 5575 5573 5572 5571 5569 5568 5566 5566 5566 5566 5566 5566 5566 5565 5564 5562 5561 5559 5558 5557 5557 5557 5558
5532 5535 5535 5534 5531 5534 5531 5524 5518 5517 5515 5525 5546 5541 5549 5566 5568 5569 5568 5568 5566 5565 5562 5560 5559 5558 5557 5556 5556 5556 5556 5556 5556 5556 5555 5555 5553 5552 5550 5550 5549 5549 5548 5549
5517 5518 5525 5524 5523 5520 5521 5519 5511 5510 5517 5527 5534 5532 5548 5560 5560 5560 5560 5559 5556 5553 5551 5550 5549 5548 5547 5546 5546 5546 5546 5545 5545 5545 5544 5544 5543 5542 5542 5542 5541 5540 5540 5540
5504 5508 5516 5516 5517 5517 5513 5511 5517 5507 5508 5508 5524 5541 5549 5550 5547 5548 5546 5545 5543 5541 5541 5539 5539 5538 5537 5536 5537 5538 5537 5536 5535 5534 5534 5533 5533 5533 5533 5532 5532 5531 5531 5531
5499 5492 5504 5506 5506 5507 5506 5507 5500 5495 5494 5503 5521 5530 5530 5534 5534 5535 5533 5531 5531 5531 5530 5530 5529 5528 5528 5527 5527 5528 5528 5526 5525 5524 5523 5524 5523 5523 5523 5523 5523 5522 5522 5522
5490 5481 5488 5494 5491 5493 5494 5493 5492 5491 5493 5494 5502 5513 5527 5528 5529 5526 5524 5523 5521 5521 5521 5519 5519 5519 5519 5518 5517 5517 5517 5516 5515 5515 5514 5514 5513 5513 5513 5513 5513 5512 5512 5512
5482 5475 5473 5483 5490 5489 5488 5487 5481 5477 5481 5487 5488 5497 5519 5518 5519 5518 5515 5515 5514 5512 5511 5511 5510 5509 5508 5508 5507 5506 5506 5506 5506 5505 5505 5504 5504 5503 5503 5502 5502 5502 5502 5502
5466 5460 5458 5470 5473 5474 5473 5476 5474 5468 5470 5473 5477 5490 5507 5506 5507 5506 5505 5504 5503 5502 5501 5501 5500 5499 5499 5498 5498 5497 5496 5496 5496 5496 5495 5494 5493 5492 5492 5492 5492 5492 5492 5492
5459 5448 5450 5457 5463 5460 5458 5462 5463 5459 5455 5463 5473 5484 5493 5493 5494 5495 5494 5494 5492 5492 5492 5491 5490 5490 5490 5489 5489 5488 5487 5487 5486 5486 5485 5484 5483 5482 5482 5482 5481 5481 5482 5481
5444 5437 5441 5445 5453 5455 5454 5454 5453 5451 5454 5456 5468 5474 5482 5483 5483 5484 5485 5485 5484 5483 5483 5483 5481 5480 5480 5480 5479 5479 5479 5478 5477 5476 5475 5474 5473 5472 5472 5471 5471 5471 5471 5472
5431 5427 5430 5432 5442 5444 5446 5451 5450 5450 5452 5456 5460 5466 5475 5476 5475 5475 5474 5474 5473 5473 5473 5474 5473 5472 5472 5471 5471 5471 5470 5469 5468 5467 5466 5465 5464 5463 5462 5461 5461 5462 5461 5462
5419 5416 5419 5426 5434 5434 5434 5447 5446 5448 5449 5451 5451 5458 5465 5464 5464 5464 5464 5464 5463 5464 5464 5464 5463 5463 5463 5462 5462 5461 5461 5460 5459 5458 5457 5456 5455 5453 5452 5452 5452 5451 5451 5451
5408 5407 5408 5413 5418 5411 5443 5448 5448 5444 5445 5446 5449 5453 5454 5454 5454 5455 5455 5453 5453 5454 5453 5453 5453 5453 5453 5453 5452 5452 5452 5450 5449 5448 5447 5446 5445 5444 5443 5442 5442 5442 5442 5442
5406 5401 5400 5402 5405 5421 5436 5439 5436 5433 5435 5439 5440 5444 5445 5445 5445 5446 5447 5446 5445 5444 5444 5443 5443 5443 5443 5443 5442 5442 5441 5440 5439 5438 5436 5435 5435 5434 5433 5432 5433 5433 5433 5433
5399 5394 5390 5395 5398 5407 5429 5429 5431 5427 5423 5433 5432 5433 5434 5434 5430 5435 5438 5437 5436 5435 5435 5434 5434 5433 5433 5432 5432 5432 5431 5430 5429 5428 5427 5426 5426 5425 5424 5424 5424 5424 5424 5424
5383 5383 5384 5389 5392 5404 5418 5420 5420 5412 5418 5424 5426 5425 5423 5421 5420 5424 5426 5425 5424 5425 5425 5425 5423 5422 5422 5421 5421 5420 5420 5419 5419 5418 5418 5417 5417 5416 5416 5416 5416 5415 5415 5415
5379 5379 5381 5385 5385 5396 5409 5407 5406 5408 5414 5415 5415 5415 5414 5413 5414 5414 5414 5413 5413 5413 5414 5413 5411 5410 5411 5410 5410 5409 5409 5408 5408 5409 5409 5408 5407 5407 5408 5407 5406 5406 5405 5405
5383 5385 5386 5387 5394 5403 5401 5400 5401 5401 5401 5403 5402 5402 5402 5401 5402 5403 5402 5401 5401 5401 5401 5401 5400 5400 5399 5399 5399 5398 5398 5398 5398 5399 5399 5399 5399 5398 5398 5398 5397 5397 5396 5396
5382 5384 5382 5382 5391 5395 5394 5393 5393 5392 5391 5392 5392 5392 5391 5390 5391 5391 5391 5390 5390 5390 5389 5389 5389 5388 5388 5389 5388 5388 5389 5389 5389 5390 5390 5390 5390 5389 5389 5389 5389 5388 5388 5387
5378 5373 5371 5374 5381 5385 5388 5385 5384 5383 5382 5382 5383 5383 5382 5381 5382 5381 5380 5380 5380 5379 5379 5379 5378 5378 5379 5379 5379 5380 5380 5380 5380 5381 5381 5381 5381 5381 5381 5381 5380 5380 5380 5380
5373 5368 5366 5373 5376 5373 5376 5376 5376 5374 5373 5373 5373 5374 5374 5373 5373 5372 5371 5371 5370 5370 5370 5369 5369 5369 5370 5370 5370 5371 5371 5371 5371 5372 5372 5372 5372 5372 5372 5371 5371 5372 5372 5372